Погода в Атасу

Казахстан     48°41′05″N   71°38′47″E
темп.,
°C
ветер,
м/с
пор.,
м/с
влажн.,
%
обл.,
%
осадки,
мм/ч
давл.,
гПа
погр.,
м
17 июня, чт
чт1700:00+20св334027 0.0 101418
03:00+19с22405 0.0 101411
06:00+19св22453 0.0 101415
09:00+25вюв112619 0.0 1014421
12:00+29ссв33235 0.0 10132673
15:00+31с442015 0.0 10103510
18:00+31св552096 0.0 10093368
21:00+27всв472925 0.0 1010162
18 июня, пт
пт1800:00+23вюв44388 0.0 101050
03:00+21вюв334354 0.0 100922
06:00+21юв334472 0.0 100822
09:00+28ю342992 0.0 1007481
12:00+32зюз551962 0.0 10053676
15:00+33юз581896 0.0 10033458
18:00+30сз892481 0.4 10021543
21:00+20сз41365100 0.4 1003410
19 июня, сб
сб1900:00+17ссз81288100 3.4 1006568
03:00+12с81183100 0.4 1008592
06:00+10ссз912751 0.4 1010650
09:00+11с1011585 0.0 10121127
12:00+15с1011384 0.0 10121679
15:00+17ссв9113130 0.0 10122418
18:00+17с9102866 0.0 10123033
21:00+13с58460 0.0 1014349
20 июня, вс
вс2000:00+11сз22565 0.0 101616
03:00+9зсз22625 0.0 101611
06:00+10зюз335938 0.0 101648
09:00+16з5740100 0.0 10161471
12:00+19зюз7836100 0.0 10142252
15:00+15з91163100 0.2 10141051
18:00+15зюз61051100 0.3 10121033
21:00+15зюз61062100 0.0 1011431
21 июня, пн
пн2100:00+13юз71383100 0.1 1009459
03:00+14зюз81476100 0.4 1007448
06:00+14зсз510837 0.4 1007417
09:00+16ссз8104965 0.0 1009994
12:00+19сз9113234 0.0 10102225
15:00+19ссз10113385 0.0 10102584
18:00+16ссз894442 0.0 10121675
21:00+14с685599 0.0 1014718